Location: Ferchesar
(52.6477°N, 12.4298°E)
Time: 09:17:13
(UTC+01:00)

Tiros 1 despin weight - Pass Details

Date: 11 December 2021
Orbit: 592 x 641 km, 48.2° (Epoch: 19 January)

Event Time Altitude Azimuth Distance (km) Brightness Sun altitude
Rises 13:11:48 0° 259° (W) 2,847 ? 12.9°
Reaches altitude 10° 13:14:09 10° 254° (WSW) 1,937 ? 12.8°
Maximum altitude 13:18:25 48° 180° (S) 783 ? 12.6°
Drops below altitude 10° 13:22:39 10° 107° (ESE) 1,923 ? 12.4°
Sets 13:24:58 0° 101° (ESE) 2,823 ? 12.3°
